CPA382 LSZH-VHHH

Flight info

Callsign CPA382
Flight time N/A
Altitude 37000
Route DEGES Z2 UMVEG/N0485F370 DCT DIMLO DCT INVED DCT SOKRU DCT DINRO DCT UDROS DCT ABSAX DCT KARDE DCT REBLO/N0492F390 M11 RODAR A909 ABDAN A846 RANAH L750 MERUN G452 PAVRU/N0493F410 G452 LKN A201 LSO A599 LINSO/K0902S1250 A599 POU R473 SIERA
Aircraft A359/H-SDE2E3GHIJ3J4J5LM1ORWXY/LB1D1

Departure

Time 2026-05-08 05:54
Airport Zürich Airport (LSZH)

Arrival

Time N/A
Airport Hong Kong International Airport (VHHH)
Time Latitude Longitude Altitude Speed Heading
2026-05-08 04:54 47.46172 8.55492 1403 ft 0 kts 186°
2026-05-08 04:55 47.46180 8.55494 1410 ft 0 kts 185°
2026-05-08 05:42 47.46191 8.55496 1403 ft 4 kts 186°
2026-05-08 05:42 47.46213 8.55500 1407 ft 4 kts 197°
2026-05-08 05:42 47.46236 8.55517 1413 ft 4 kts 228°
2026-05-08 05:43 47.46249 8.55550 1413 ft 4 kts 258°
2026-05-08 05:43 47.46250 8.55587 1412 ft 4 kts 276°
2026-05-08 05:43 47.46248 8.55618 1409 ft 3 kts 276°
2026-05-08 05:43 47.46247 8.55624 1409 ft 0 kts 276°
2026-05-08 05:46 47.46250 8.55587 1412 ft 11 kts 276°
2026-05-08 05:47 47.46257 8.55494 1411 ft 10 kts 276°
2026-05-08 05:47 47.46264 8.55390 1405 ft 11 kts 276°
2026-05-08 05:47 47.46273 8.55263 1403 ft 15 kts 276°
2026-05-08 05:47 47.46284 8.55108 1411 ft 15 kts 276°
2026-05-08 05:48 47.46267 8.54965 1412 ft 14 kts 218°
2026-05-08 05:48 47.46179 8.54978 1412 ft 13 kts 156°
2026-05-08 05:48 47.46089 8.55038 1411 ft 16 kts 154°
2026-05-08 05:48 47.45979 8.55114 1411 ft 18 kts 156°
2026-05-08 05:49 47.45906 8.55182 1412 ft 9 kts 120°
2026-05-08 05:49 47.45889 8.55299 1411 ft 16 kts 96°
2026-05-08 05:49 47.45877 8.55489 1411 ft 19 kts 95°
2026-05-08 05:49 47.45864 8.55683 1410 ft 19 kts 98°
2026-05-08 05:50 47.45849 8.55875 1408 ft 19 kts 96°
2026-05-08 05:50 47.45836 8.56065 1407 ft 19 kts 96°
2026-05-08 05:50 47.45822 8.56256 1411 ft 19 kts 96°
2026-05-08 05:50 47.45808 8.56451 1407 ft 19 kts 96°
2026-05-08 05:51 47.45794 8.56649 1414 ft 19 kts 96°
2026-05-08 05:51 47.45780 8.56850 1411 ft 20 kts 96°
2026-05-08 05:51 47.45765 8.56981 1408 ft 6 kts 116°
2026-05-08 05:51 47.45741 8.57018 1413 ft 3 kts 146°
2026-05-08 05:52 47.45715 8.57029 1416 ft 9 kts 168°
2026-05-08 05:52 47.45668 8.57007 1418 ft 5 kts 232°
2026-05-08 05:52 47.45667 8.56975 1418 ft 1 kts 272°
2026-05-08 05:53 47.45670 8.56888 1414 ft 36 kts 274°
2026-05-08 05:53 47.45725 8.56126 1412 ft 112 kts 276°
2026-05-08 05:53 47.45832 8.54638 1422 ft 175 kts 277°
2026-05-08 05:54 47.45956 8.52853 2253 ft 173 kts 274°
2026-05-08 05:54 47.45952 8.51051 2987 ft 183 kts 266°
2026-05-08 05:54 47.45772 8.49111 3256 ft 197 kts 257°
2026-05-08 05:54 47.45394 8.47091 3539 ft 210 kts 251°
2026-05-08 05:55 47.44875 8.45005 3884 ft 221 kts 247°
2026-05-08 05:55 47.44225 8.42924 4386 ft 224 kts 242°
2026-05-08 05:55 47.43522 8.40905 4961 ft 225 kts 242°
2026-05-08 05:55 47.42759 8.38867 5554 ft 226 kts 235°
2026-05-08 05:56 47.41616 8.37296 6115 ft 228 kts 207°
2026-05-08 05:56 47.40078 8.36810 6641 ft 231 kts 176°
2026-05-08 05:56 47.38567 8.37607 6926 ft 235 kts 144°
2026-05-08 05:56 47.37572 8.39513 6965 ft 239 kts 111°
2026-05-08 05:57 47.37444 8.41946 6996 ft 242 kts 76°
2026-05-08 05:57 47.38219 8.44131 7069 ft 243 kts 47°
2026-05-08 05:57 47.39420 8.45903 7076 ft 245 kts 42°
2026-05-08 05:57 47.40677 8.47599 7076 ft 246 kts 41°
2026-05-08 05:58 47.41919 8.49286 7080 ft 248 kts 42°
2026-05-08 05:58 47.43237 8.51102 7237 ft 268 kts 43°
2026-05-08 05:58 47.44623 8.53061 7620 ft 282 kts 45°
2026-05-08 05:58 47.45660 8.55536 8139 ft 289 kts 75°
2026-05-08 05:59 47.45945 8.58482 8772 ft 292 kts 88°
2026-05-08 05:59 47.46037 8.61513 9410 ft 297 kts 89°
2026-05-08 05:59 47.46119 8.64599 10057 ft 302 kts 89°
2026-05-08 05:59 47.46213 8.67774 10430 ft 317 kts 88°
2026-05-08 06:00 47.46285 8.69965 10619 ft 328 kts 88°
2026-05-08 06:00 47.46406 8.73415 10906 ft 344 kts 88°
2026-05-08 06:00 47.46535 8.77029 11202 ft 360 kts 88°
2026-05-08 06:00 47.46661 8.82061 11583 ft 380 kts 89°
2026-05-08 06:01 47.46703 8.86028 11979 ft 390 kts 90°
2026-05-08 06:01 47.46727 8.90058 12584 ft 393 kts 90°
2026-05-08 06:01 47.46743 8.92797 13006 ft 396 kts 89°
2026-05-08 06:01 47.46771 8.96881 13621 ft 399 kts 89°
2026-05-08 06:02 47.46804 9.00945 14182 ft 402 kts 89°
2026-05-08 06:02 47.46842 9.05101 14702 ft 406 kts 89°
2026-05-08 06:02 47.46883 9.09292 15229 ft 409 kts 89°
2026-05-08 06:02 47.46924 9.13526 15754 ft 413 kts 89°
2026-05-08 06:03 47.46965 9.17789 16280 ft 416 kts 89°
2026-05-08 06:03 47.47005 9.22076 16800 ft 419 kts 89°
2026-05-08 06:03 47.47043 9.26401 17315 ft 423 kts 89°
2026-05-08 06:03 47.47080 9.30771 17852 ft 426 kts 89°
2026-05-08 06:04 47.47115 9.35168 18378 ft 429 kts 89°
2026-05-08 06:04 47.47148 9.39598 18865 ft 433 kts 89°
2026-05-08 06:04 47.47180 9.44082 19343 ft 436 kts 89°
2026-05-08 06:04 47.47209 9.48526 19820 ft 440 kts 90°
2026-05-08 06:05 47.47238 9.53055 20308 ft 443 kts 90°
2026-05-08 06:05 47.47259 9.57635 20812 ft 446 kts 91°
2026-05-08 06:05 47.47126 9.62239 21281 ft 449 kts 94°
2026-05-08 06:05 47.46925 9.66867 21713 ft 454 kts 95°
2026-05-08 06:06 47.46687 9.71534 22180 ft 457 kts 95°
2026-05-08 06:06 47.46428 9.76232 22662 ft 460 kts 96°
2026-05-08 06:06 47.46157 9.80976 23140 ft 464 kts 96°
2026-05-08 06:06 47.45884 9.85734 23601 ft 467 kts 96°
2026-05-08 06:07 47.45608 9.90539 23978 ft 471 kts 96°
2026-05-08 06:07 47.45332 9.95334 24376 ft 474 kts 96°
2026-05-08 06:07 47.45053 10.00205 24768 ft 477 kts 96°
2026-05-08 06:07 47.44770 10.05117 25147 ft 481 kts 96°
2026-05-08 06:08 47.44484 10.10073 25451 ft 486 kts 96°
2026-05-08 06:08 47.44192 10.15073 25839 ft 489 kts 96°
2026-05-08 06:08 47.43717 10.20054 26208 ft 491 kts 101°
2026-05-08 06:08 47.43114 10.25040 26583 ft 494 kts 102°
2026-05-08 06:09 47.42465 10.30030 26960 ft 497 kts 103°
2026-05-08 06:09 47.41788 10.35052 27362 ft 500 kts 103°
2026-05-08 06:09 47.41095 10.40112 27720 ft 503 kts 103°
2026-05-08 06:09 47.40403 10.45130 28031 ft 506 kts 103°
2026-05-08 06:10 47.39698 10.50247 28299 ft 511 kts 103°
2026-05-08 06:10 47.38989 10.55403 28617 ft 514 kts 103°
2026-05-08 06:10 47.38273 10.60577 28966 ft 516 kts 104°
2026-05-08 06:10 47.37548 10.65798 29294 ft 519 kts 104°
2026-05-08 06:11 47.36820 10.71039 29604 ft 522 kts 104°
2026-05-08 06:11 47.36088 10.76285 29946 ft 524 kts 104°
2026-05-08 06:11 47.35348 10.81562 30226 ft 526 kts 104°
2026-05-08 06:11 47.34605 10.86853 30632 ft 524 kts 104°
2026-05-08 06:12 47.33866 10.92102 31069 ft 521 kts 104°
2026-05-08 06:12 47.33126 10.97319 31481 ft 519 kts 104°
2026-05-08 06:12 47.32386 11.02512 31840 ft 518 kts 104°
2026-05-08 06:12 47.31656 11.07640 32198 ft 517 kts 104°
2026-05-08 06:13 47.30917 11.12817 32571 ft 515 kts 104°
2026-05-08 06:13 47.30178 11.17977 32962 ft 513 kts 105°
2026-05-08 06:13 47.29439 11.23119 33323 ft 512 kts 105°
2026-05-08 06:13 47.28700 11.28242 33596 ft 513 kts 105°
2026-05-08 06:14 47.27954 11.33390 33735 ft 514 kts 105°
2026-05-08 06:14 47.27207 11.38540 34023 ft 514 kts 105°
2026-05-08 06:14 47.26457 11.43675 34305 ft 512 kts 105°
2026-05-08 06:14 47.25707 11.48799 34550 ft 511 kts 105°
2026-05-08 06:15 47.24971 11.53915 34764 ft 511 kts 104°
2026-05-08 06:15 47.24350 11.59083 34981 ft 512 kts 102°
2026-05-08 06:15 47.23811 11.64255 35173 ft 512 kts 101°
2026-05-08 06:16 47.22775 11.74604 35270 ft 517 kts 101°
2026-05-08 06:16 47.22233 11.79830 35463 ft 516 kts 101°
2026-05-08 06:16 47.21676 11.85043 35702 ft 514 kts 102°
2026-05-08 06:16 47.21107 11.90237 35911 ft 513 kts 102°
2026-05-08 06:17 47.20052 12.00659 36176 ft 514 kts 100°
2026-05-08 06:17 47.19565 12.05801 36389 ft 513 kts 100°
2026-05-08 06:17 47.19075 12.10990 36576 ft 512 kts 100°
2026-05-08 06:18 47.18579 12.16179 36688 ft 513 kts 100°
2026-05-08 06:18 47.18075 12.21366 36894 ft 512 kts 100°
2026-05-08 06:18 47.17565 12.26544 37055 ft 512 kts 101°
2026-05-08 06:18 47.17048 12.31744 37072 ft 515 kts 100°
2026-05-08 06:19 47.15998 12.42210 37073 ft 519 kts 101°
2026-05-08 06:19 47.14923 12.52847 37062 ft 518 kts 101°
2026-05-08 06:20 47.10590 12.94680 37077 ft 519 kts 101°
2026-05-08 06:20 47.06119 13.36321 37078 ft 521 kts 101°
2026-05-08 06:21 47.01444 13.78328 37094 ft 523 kts 101°
2026-05-08 06:21 46.96604 14.20380 37104 ft 523 kts 102°
2026-05-08 06:22 46.91598 14.62464 37105 ft 524 kts 102°
2026-05-08 06:22 46.86441 15.04433 37095 ft 525 kts 102°
2026-05-08 06:23 46.81126 15.46376 37098 ft 526 kts 103°
2026-05-08 06:23 46.75673 15.88109 37093 ft 527 kts 103°
2026-05-08 06:24 46.70022 16.30104 37092 ft 527 kts 103°
2026-05-08 06:24 46.64908 16.72130 37083 ft 528 kts 102°
2026-05-08 06:25 46.59929 17.14303 37074 ft 528 kts 102°
2026-05-08 06:25 46.54790 17.56354 37069 ft 529 kts 103°
2026-05-08 06:26 46.49519 17.98152 37064 ft 529 kts 103°
2026-05-08 06:26 46.44072 18.40054 37059 ft 528 kts 103°
2026-05-08 06:27 46.38473 18.81854 37060 ft 529 kts 104°
2026-05-08 06:27 46.32707 19.23690 37069 ft 529 kts 104°
2026-05-08 06:28 46.26787 19.65434 37069 ft 528 kts 104°
2026-05-08 06:28 46.20734 20.06968 37069 ft 528 kts 104°
2026-05-08 06:29 46.14331 20.48278 37062 ft 525 kts 110°
2026-05-08 06:29 46.05519 20.88329 37057 ft 523 kts 110°
2026-05-08 06:30 45.96853 21.28243 37070 ft 522 kts 110°
2026-05-08 06:30 45.88062 21.67928 37044 ft 521 kts 111°
2026-05-08 06:31 45.79139 22.07468 37053 ft 520 kts 111°
2026-05-08 06:31 45.70156 22.46549 37062 ft 520 kts 111°
2026-05-08 06:32 45.60969 22.85810 37054 ft 520 kts 111°
2026-05-08 06:32 45.51666 23.24869 37073 ft 520 kts 111°
2026-05-08 06:33 45.42224 23.63831 37078 ft 519 kts 111°
2026-05-08 06:33 45.32658 24.02602 37072 ft 518 kts 111°
2026-05-08 06:34 45.22993 24.41134 37072 ft 516 kts 112°
2026-05-08 06:34 45.13255 24.79316 37070 ft 518 kts 112°
2026-05-08 06:35 45.03298 25.17721 37069 ft 519 kts 112°
2026-05-08 06:35 44.91643 25.54903 37065 ft 517 kts 118°
2026-05-08 06:36 44.78777 25.91213 37063 ft 517 kts 118°
2026-05-08 06:36 44.65887 26.27162 37066 ft 519 kts 118°
2026-05-08 06:37 44.52792 26.63203 37061 ft 518 kts 118°
2026-05-08 06:37 44.39574 26.99112 37065 ft 518 kts 118°
2026-05-08 06:38 44.26269 27.34790 37072 ft 517 kts 118°
2026-05-08 06:38 44.12932 27.70098 37075 ft 517 kts 118°
2026-05-08 06:39 43.99451 28.05341 37082 ft 518 kts 118°
2026-05-08 06:39 43.85824 28.40522 37083 ft 515 kts 119°
2026-05-08 06:40 43.80173 28.54982 37088 ft 514 kts 119°
2026-05-08 06:40 43.76756 28.63691 37092 ft 514 kts 119°
2026-05-08 06:41 43.73344 28.72360 37107 ft 513 kts 119°
2026-05-08 06:41 43.69823 28.80946 37115 ft 513 kts 125°
2026-05-08 06:42 43.65779 28.88976 37100 ft 512 kts 126°
2026-05-08 06:42 43.61607 28.96943 37109 ft 511 kts 127°
2026-05-08 06:43 43.57420 29.04874 37116 ft 510 kts 127°
2026-05-08 06:43 43.53243 29.12788 37114 ft 510 kts 127°
2026-05-08 06:44 43.49064 29.20701 37107 ft 509 kts 127°
2026-05-08 06:44 43.44908 29.28555 37123 ft 511 kts 127°
2026-05-08 06:45 43.40711 29.36463 37108 ft 512 kts 127°
2026-05-08 06:45 43.36507 29.44364 37109 ft 512 kts 127°
2026-05-08 06:46 43.32302 29.52246 37129 ft 510 kts 127°
2026-05-08 06:46 43.28098 29.60105 37129 ft 510 kts 127°
2026-05-08 06:47 43.23895 29.67940 37110 ft 510 kts 127°
2026-05-08 06:47 43.19715 29.75712 37110 ft 510 kts 127°
2026-05-08 06:48 43.15499 29.83530 37133 ft 510 kts 127°
2026-05-08 06:48 43.11280 29.91332 37129 ft 510 kts 127°
2026-05-08 06:49 43.07053 29.99130 37121 ft 509 kts 127°
2026-05-08 06:49 43.03544 30.05588 37126 ft 510 kts 127°
2026-05-08 06:50 42.99302 30.13375 37124 ft 511 kts 127°
2026-05-08 06:50 42.95049 30.21162 37127 ft 511 kts 127°
2026-05-08 06:51 42.90793 30.28935 37130 ft 510 kts 127°
2026-05-08 06:51 42.86543 30.36677 37132 ft 510 kts 127°
2026-05-08 06:52 42.82288 30.44406 37134 ft 510 kts 127°
2026-05-08 06:52 42.71404 30.71933 37136 ft 508 kts 104°
2026-05-08 06:53 42.64234 31.08789 37131 ft 507 kts 104°
2026-05-08 06:53 42.56786 31.45879 37142 ft 508 kts 104°
2026-05-08 06:54 42.49218 31.82897 37143 ft 510 kts 104°
2026-05-08 06:54 42.41515 32.19898 37149 ft 511 kts 104°
2026-05-08 06:55 42.33741 32.56901 37139 ft 510 kts 100°
2026-05-08 06:55 42.30534 32.94639 37155 ft 508 kts 94°
2026-05-08 06:56 42.27446 33.32652 37156 ft 508 kts 94°
2026-05-08 06:56 42.24235 33.70581 37161 ft 507 kts 94°
2026-05-08 06:57 42.20907 34.08376 37165 ft 507 kts 94°
2026-05-08 06:57 42.17464 34.46044 37163 ft 505 kts 94°
2026-05-08 06:58 42.13924 34.83393 37191 ft 505 kts 94°
2026-05-08 06:58 42.10250 35.20839 37203 ft 502 kts 95°
2026-05-08 06:59 42.06476 35.58028 37190 ft 501 kts 95°
2026-05-08 06:59 42.02580 35.95183 37197 ft 499 kts 96°
2026-05-08 07:00 41.98610 36.31889 37203 ft 499 kts 96°
2026-05-08 07:00 41.94494 36.68798 37205 ft 498 kts 96°
2026-05-08 07:01 41.90267 37.05605 37206 ft 498 kts 96°
2026-05-08 07:01 41.85441 37.42330 37215 ft 499 kts 98°
2026-05-08 07:02 41.80563 37.78666 37211 ft 498 kts 98°
2026-05-08 07:02 41.75534 38.15194 37213 ft 498 kts 98°
2026-05-08 07:03 41.70391 38.51654 37222 ft 498 kts 98°
2026-05-08 07:03 41.65140 38.88007 37211 ft 498 kts 99°
2026-05-08 07:04 41.59793 39.24178 37211 ft 498 kts 99°
2026-05-08 07:04 41.54301 39.60500 37211 ft 499 kts 99°
2026-05-08 07:05 41.48689 39.96791 37216 ft 499 kts 100°
2026-05-08 07:05 41.42977 40.32933 37217 ft 498 kts 100°
2026-05-08 07:06 41.37158 40.68970 37220 ft 498 kts 101°
2026-05-08 07:06 41.31205 41.05086 37211 ft 498 kts 101°
2026-05-08 07:07 41.25163 41.40990 37206 ft 501 kts 102°
2026-05-08 07:07 41.18952 41.77164 37210 ft 503 kts 102°
2026-05-08 07:08 41.12591 42.13473 37221 ft 505 kts 103°
2026-05-08 07:08 41.06134 42.49611 37224 ft 506 kts 103°
2026-05-08 07:09 40.99522 42.85911 37216 ft 507 kts 104°
2026-05-08 07:09 40.92780 43.22221 37211 ft 509 kts 104°
2026-05-08 07:10 40.85985 43.58139 38073 ft 505 kts 105°
2026-05-08 07:10 40.83727 43.76439 38572 ft 508 kts 94°
2026-05-08 07:10 40.83124 43.95139 38972 ft 509 kts 94°
2026-05-08 07:11 40.82492 44.13861 39229 ft 512 kts 94°
2026-05-08 07:11 40.81808 44.32729 39225 ft 515 kts 94°
2026-05-08 07:11 40.80352 44.70453 39199 ft 515 kts 95°
2026-05-08 07:12 40.78768 45.08288 39190 ft 516 kts 95°
2026-05-08 07:12 40.77059 45.46110 39188 ft 516 kts 95°
2026-05-08 07:13 40.73834 45.83745 39186 ft 516 kts 99°
2026-05-08 07:13 40.70318 46.21369 39182 ft 517 kts 99°
2026-05-08 07:14 40.66665 46.59091 39178 ft 519 kts 100°
2026-05-08 07:14 40.62909 46.96577 39182 ft 519 kts 101°
2026-05-08 07:15 40.60198 47.34479 39185 ft 523 kts 96°
2026-05-08 07:15 40.59069 47.72767 39201 ft 523 kts 96°
2026-05-08 07:16 40.60175 48.10924 39197 ft 534 kts 84°
2026-05-08 07:16 40.64742 48.49683 39187 ft 535 kts 84°
2026-05-08 07:17 40.69136 48.88606 39176 ft 536 kts 85°
2026-05-08 07:17 40.72540 49.27455 39154 ft 527 kts 101°
2026-05-08 07:18 40.68084 49.65718 39137 ft 528 kts 103°
2026-05-08 07:18 40.63396 50.03739 39125 ft 529 kts 104°
2026-05-08 07:19 40.58556 50.41962 39141 ft 529 kts 104°
2026-05-08 07:19 40.53585 50.80166 39162 ft 529 kts 105°
2026-05-08 07:20 40.49556 51.18748 39170 ft 534 kts 102°
2026-05-08 07:20 40.45296 51.57497 39166 ft 532 kts 110°
2026-05-08 07:21 40.38347 51.95158 39170 ft 534 kts 110°
2026-05-08 07:21 40.31247 52.32985 39165 ft 534 kts 111°
2026-05-08 07:22 40.24043 52.70681 39119 ft 532 kts 111°
2026-05-08 07:22 40.16740 53.08221 39143 ft 532 kts 112°
2026-05-08 07:23 40.09286 53.45848 39132 ft 535 kts 112°
2026-05-08 07:23 40.01673 53.83576 39127 ft 538 kts 112°
2026-05-08 07:24 39.93908 54.21359 39126 ft 542 kts 113°
2026-05-08 07:24 39.85959 54.59298 39124 ft 544 kts 114°
2026-05-08 07:25 39.77874 54.97105 39115 ft 546 kts 114°
2026-05-08 07:26 39.65442 55.54185 39107 ft 548 kts 114°
2026-05-08 07:26 39.56956 55.92176 39105 ft 550 kts 114°
2026-05-08 07:27 39.48407 56.30241 39102 ft 550 kts 114°
2026-05-08 07:27 39.39740 56.68166 39097 ft 554 kts 114°
2026-05-08 07:28 39.30330 57.06167 39091 ft 556 kts 116°
2026-05-08 07:28 39.20412 57.44279 39090 ft 563 kts 115°
2026-05-08 07:29 39.10276 57.82703 39086 ft 567 kts 115°
2026-05-08 07:29 39.00055 58.20868 39074 ft 567 kts 114°
2026-05-08 07:30 38.89661 58.59095 39078 ft 566 kts 114°
2026-05-08 07:30 38.76023 58.94964 39086 ft 559 kts 122°
2026-05-08 07:31 38.61971 59.30392 39087 ft 557 kts 122°
2026-05-08 07:31 38.52894 59.45950 39087 ft 541 kts 139°
2026-05-08 07:31 38.42677 59.60087 39070 ft 540 kts 140°
2026-05-08 07:32 38.22310 59.88268 39077 ft 540 kts 139°
2026-05-08 07:32 38.02023 60.16115 39072 ft 540 kts 139°
2026-05-08 07:33 37.81680 60.44101 39049 ft 539 kts 139°
2026-05-08 07:33 37.60966 60.71251 39059 ft 536 kts 141°
2026-05-08 07:34 37.40014 60.97868 39056 ft 535 kts 141°
2026-05-08 07:34 37.19050 61.24317 39048 ft 533 kts 141°
2026-05-08 07:35 36.97980 61.50624 39051 ft 534 kts 141°
2026-05-08 07:35 36.76940 61.76706 39043 ft 538 kts 142°
2026-05-08 07:36 36.55580 62.02972 39032 ft 539 kts 142°
2026-05-08 07:36 36.34124 62.29142 39040 ft 541 kts 141°
2026-05-08 07:37 36.12509 62.55290 39037 ft 543 kts 141°
2026-05-08 07:37 35.90991 62.81114 39036 ft 543 kts 141°
2026-05-08 07:38 35.69245 63.07003 39033 ft 543 kts 141°
2026-05-08 07:38 35.49016 63.34719 39035 ft 550 kts 131°
2026-05-08 07:39 35.33519 63.59430 39058 ft 551 kts 131°
2026-05-08 07:39 35.14765 63.89143 39073 ft 554 kts 131°
2026-05-08 07:40 34.95850 64.18904 39070 ft 554 kts 131°
2026-05-08 07:40 34.76782 64.48640 39117 ft 556 kts 131°
2026-05-08 07:41 34.57635 64.78251 39119 ft 560 kts 131°
2026-05-08 07:41 34.38369 65.07768 39119 ft 560 kts 132°
2026-05-08 07:42 34.18822 65.37422 39132 ft 564 kts 131°
2026-05-08 07:42 33.99113 65.67125 39110 ft 566 kts 131°
2026-05-08 07:43 33.79364 65.96678 39080 ft 566 kts 132°
2026-05-08 07:43 33.59504 66.26162 39068 ft 568 kts 132°
2026-05-08 07:44 33.39489 66.55599 39064 ft 571 kts 132°
2026-05-08 07:44 33.19443 66.84742 39080 ft 572 kts 131°
2026-05-08 07:45 32.99188 67.13957 39069 ft 570 kts 131°
2026-05-08 07:45 32.78859 67.43058 38994 ft 572 kts 131°
2026-05-08 07:46 32.57837 67.71380 38964 ft 572 kts 133°
2026-05-08 07:46 32.37329 68.00034 38977 ft 575 kts 130°
2026-05-08 07:47 32.16933 68.29192 38980 ft 576 kts 131°
2026-05-08 07:47 31.96439 68.58216 38950 ft 576 kts 131°
2026-05-08 07:48 31.75867 68.87129 38925 ft 576 kts 131°
2026-05-08 07:48 31.55592 69.16377 38919 ft 578 kts 128°
2026-05-08 07:49 31.35602 69.45610 38915 ft 577 kts 137°
2026-05-08 07:49 31.10889 69.69396 38935 ft 575 kts 143°
2026-05-08 07:50 30.85994 69.92817 38925 ft 576 kts 143°
2026-05-08 07:50 30.60970 70.16206 38898 ft 575 kts 143°
2026-05-08 07:51 30.36065 70.39324 38854 ft 576 kts 143°
2026-05-08 07:51 30.11087 70.62596 38815 ft 576 kts 142°
2026-05-08 07:52 29.86276 70.86016 38799 ft 576 kts 142°
2026-05-08 07:52 29.61576 71.09485 38802 ft 576 kts 139°
2026-05-08 07:53 29.37646 71.34077 38796 ft 576 kts 140°
2026-05-08 07:53 29.13831 71.58333 38791 ft 576 kts 139°
2026-05-08 07:54 28.89893 71.82672 38779 ft 575 kts 139°
2026-05-08 07:54 28.65929 72.06874 38777 ft 575 kts 139°
2026-05-08 07:55 28.46569 72.34412 38773 ft 558 kts 97°
2026-05-08 07:55 28.41370 72.69146 38779 ft 555 kts 95°
2026-05-08 07:56 28.36082 73.03436 38782 ft 553 kts 95°
2026-05-08 07:56 28.30697 73.37800 38788 ft 551 kts 95°
2026-05-08 07:57 28.25247 73.72014 38791 ft 550 kts 95°
2026-05-08 07:57 28.19718 74.06146 38808 ft 549 kts 96°
2026-05-08 07:57 28.19694 74.23156 38815 ft 535 kts 79°
2026-05-08 07:58 28.20927 74.39997 38823 ft 535 kts 80°
2026-05-08 07:58 28.23229 74.73682 38826 ft 536 kts 80°
2026-05-08 07:59 28.25435 75.07310 38848 ft 536 kts 80°
2026-05-08 07:59 28.27574 75.41191 38827 ft 537 kts 81°
2026-05-08 08:00 28.29634 75.75174 38833 ft 540 kts 81°
2026-05-08 08:00 28.31619 76.09325 38847 ft 543 kts 81°
2026-05-08 08:01 28.33515 76.43410 38844 ft 546 kts 81°
2026-05-08 08:01 28.31159 76.77668 38853 ft 561 kts 108°
2026-05-08 08:02 28.19846 77.10752 38864 ft 561 kts 109°
2026-05-08 08:02 28.08581 77.43769 38869 ft 560 kts 110°
2026-05-08 08:03 27.97255 77.76652 38879 ft 560 kts 110°
2026-05-08 08:03 27.85855 78.09452 38892 ft 559 kts 111°
2026-05-08 08:04 27.73974 78.41717 38889 ft 559 kts 113°
2026-05-08 08:04 27.61756 78.74036 38877 ft 558 kts 113°
2026-05-08 08:05 27.49468 79.06286 38898 ft 559 kts 114°
2026-05-08 08:05 27.43311 79.22346 39074 ft 559 kts 114°
2026-05-08 08:05 27.37203 79.38214 39635 ft 557 kts 114°
2026-05-08 08:05 27.31008 79.54172 40070 ft 556 kts 115°
2026-05-08 08:06 27.24600 79.70028 40526 ft 555 kts 116°
2026-05-08 08:06 27.18239 79.85791 40885 ft 554 kts 116°
2026-05-08 08:06 27.11845 80.01603 40886 ft 554 kts 116°
2026-05-08 08:07 26.99078 80.32984 40886 ft 552 kts 116°
2026-05-08 08:07 26.86252 80.64266 40886 ft 553 kts 117°
2026-05-08 08:08 26.74227 80.95627 40895 ft 553 kts 109°
2026-05-08 08:08 26.65543 81.28712 40893 ft 554 kts 108°
2026-05-08 08:09 26.56773 81.61705 40878 ft 552 kts 109°
2026-05-08 08:09 26.47951 81.94560 40875 ft 553 kts 109°
2026-05-08 08:10 26.39045 82.27402 40873 ft 553 kts 109°
2026-05-08 08:10 26.30112 82.60019 40863 ft 553 kts 110°
2026-05-08 08:11 26.21054 82.92769 40869 ft 553 kts 110°
2026-05-08 08:11 26.11898 83.25552 40872 ft 554 kts 110°
2026-05-08 08:12 26.02670 83.58281 40867 ft 555 kts 111°
2026-05-08 08:12 25.93411 83.90906 40870 ft 555 kts 111°
2026-05-08 08:13 25.84017 84.23700 40873 ft 556 kts 111°
2026-05-08 08:13 25.74584 84.56321 40872 ft 554 kts 111°
2026-05-08 08:14 25.65081 84.88881 40865 ft 554 kts 111°
2026-05-08 08:14 25.56846 85.21865 40854 ft 558 kts 104°
2026-05-08 08:15 25.51009 85.55301 40878 ft 555 kts 104°
2026-05-08 08:15 25.45026 85.88853 40889 ft 555 kts 104°
2026-05-08 08:16 25.38954 86.22452 40894 ft 555 kts 104°
2026-05-08 08:16 25.30519 86.54898 40908 ft 546 kts 119°
2026-05-08 08:17 25.17752 86.85433 40911 ft 547 kts 120°
2026-05-08 08:17 25.05071 87.15722 40922 ft 546 kts 120°
2026-05-08 08:18 24.92281 87.46057 40936 ft 545 kts 120°
2026-05-08 08:18 24.79442 87.76301 40926 ft 543 kts 120°
2026-05-08 08:19 24.66960 88.06527 40915 ft 541 kts 120°
2026-05-08 08:19 24.54446 88.36431 40910 ft 540 kts 120°
2026-05-08 08:20 24.43790 88.62773 40903 ft 547 kts 108°
2026-05-08 08:20 24.43446 88.64180 40905 ft 547 kts 108°
2026-05-08 08:21 24.36919 88.96348 40891 ft 547 kts 106°
2026-05-08 08:21 24.36531 88.98276 40894 ft 547 kts 106°
2026-05-08 08:22 24.29925 89.30787 40890 ft 546 kts 106°
2026-05-08 08:22 24.23328 89.62899 40891 ft 545 kts 107°
2026-05-08 08:23 24.16591 89.95322 40884 ft 545 kts 107°
2026-05-08 08:23 24.09841 90.27453 40879 ft 545 kts 107°
2026-05-08 08:24 24.06165 90.44861 40865 ft 544 kts 106°
2026-05-08 08:24 23.99195 90.77221 40857 ft 542 kts 107°
2026-05-08 08:25 23.92265 91.09137 40863 ft 541 kts 107°
2026-05-08 08:25 23.85552 91.41235 40860 ft 542 kts 105°
2026-05-08 08:26 23.80194 91.67998 40870 ft 541 kts 106°
2026-05-08 08:26 23.72601 92.05322 40880 ft 540 kts 106°
2026-05-08 08:27 23.66029 92.37249 40905 ft 540 kts 106°
2026-05-08 08:27 23.60517 92.63786 40917 ft 539 kts 106°
2026-05-08 08:28 23.54577 92.95928 40932 ft 541 kts 105°
2026-05-08 08:28 23.48549 93.28020 40945 ft 540 kts 105°
2026-05-08 08:29 23.43712 93.60302 40945 ft 542 kts 98°
2026-05-08 08:29 23.40550 93.92995 40939 ft 542 kts 99°
2026-05-08 08:30 23.37316 94.25457 40900 ft 542 kts 99°
2026-05-08 08:30 23.32320 94.74295 40889 ft 540 kts 99°
2026-05-08 08:31 23.28907 95.06830 40881 ft 541 kts 99°
2026-05-08 08:31 23.25429 95.39328 40861 ft 540 kts 99°
2026-05-08 08:32 23.21914 95.71533 40846 ft 540 kts 99°
2026-05-08 08:32 23.18311 96.03923 40851 ft 539 kts 100°
2026-05-08 08:33 23.14646 96.36269 40866 ft 538 kts 100°
2026-05-08 08:33 23.10919 96.68550 40883 ft 538 kts 100°
2026-05-08 08:34 23.07131 97.00780 40927 ft 536 kts 100°
2026-05-08 08:34 23.03291 97.32879 40902 ft 536 kts 100°
2026-05-08 08:35 22.99378 97.65033 40889 ft 535 kts 100°
2026-05-08 08:35 23.00050 97.81009 40887 ft 539 kts 72°
2026-05-08 08:35 23.05213 97.96336 40897 ft 540 kts 69°
2026-05-08 08:36 23.15635 98.26738 40929 ft 539 kts 69°
2026-05-08 08:36 23.25976 98.57315 40905 ft 540 kts 69°
2026-05-08 08:37 23.36272 98.87969 40901 ft 539 kts 69°
2026-05-08 08:37 23.46022 99.18902 40926 ft 539 kts 71°
2026-05-08 08:38 23.57060 99.48984 40933 ft 538 kts 59°
2026-05-08 08:38 23.71882 99.77340 40945 ft 537 kts 59°
2026-05-08 08:39 23.86611 100.05774 40940 ft 538 kts 59°
2026-05-08 08:39 24.01209 100.34134 40932 ft 537 kts 59°
2026-05-08 08:40 24.15814 100.62731 40920 ft 538 kts 60°
2026-05-08 08:40 24.30159 100.91447 40932 ft 537 kts 60°
2026-05-08 08:41 24.44580 101.20445 40931 ft 541 kts 60°
2026-05-08 08:41 24.58907 101.49436 40947 ft 540 kts 60°
2026-05-08 08:42 24.73035 101.78535 40927 ft 542 kts 60°
2026-05-08 08:42 24.87129 102.07864 40928 ft 541 kts 60°
2026-05-08 08:43 25.01162 102.37237 40965 ft 540 kts 60°
2026-05-08 08:43 25.05639 102.52922 40981 ft 541 kts 92°
2026-05-08 08:43 25.01100 102.68329 41111 ft 530 kts 120°
2026-05-08 08:44 24.88032 102.97531 41144 ft 531 kts 119°
2026-05-08 08:44 24.81606 103.12237 41034 ft 532 kts 119°
2026-05-08 08:44 24.75245 103.26707 41007 ft 531 kts 119°
2026-05-08 08:45 24.62333 103.55935 41025 ft 533 kts 119°
2026-05-08 08:45 24.51538 103.86410 41042 ft 540 kts 105°
2026-05-08 08:46 24.44760 104.18419 41037 ft 541 kts 105°
2026-05-08 08:46 24.37815 104.50528 41020 ft 539 kts 105°
2026-05-08 08:47 24.30830 104.82492 41023 ft 539 kts 105°
2026-05-08 08:47 24.23821 105.14219 41029 ft 537 kts 105°
2026-05-08 08:48 24.16306 105.45895 41018 ft 536 kts 106°
2026-05-08 08:48 24.08774 105.77550 41012 ft 537 kts 103°
2026-05-08 08:49 24.02558 106.09539 40994 ft 536 kts 103°
2026-05-08 08:49 23.96137 106.41436 40992 ft 537 kts 103°
2026-05-08 08:50 23.91412 106.73600 40991 ft 537 kts 94°
2026-05-08 08:50 23.89259 107.06206 40992 ft 537 kts 94°
2026-05-08 08:51 23.87013 107.38532 40995 ft 535 kts 95°
2026-05-08 08:51 23.84689 107.71032 41001 ft 535 kts 95°
2026-05-08 08:52 23.82714 108.03507 41000 ft 536 kts 93°
2026-05-08 08:52 23.80983 108.36036 41005 ft 536 kts 94°
2026-05-08 08:53 23.79109 108.68506 40998 ft 536 kts 94°
2026-05-08 08:53 23.77179 109.00865 40996 ft 536 kts 94°
2026-05-08 08:54 23.72693 109.32907 40985 ft 534 kts 103°
2026-05-08 08:54 23.66227 109.64664 40977 ft 535 kts 103°
2026-05-08 08:55 23.59671 109.96302 40986 ft 533 kts 103°
2026-05-08 08:55 23.53130 110.27588 40974 ft 532 kts 103°
2026-05-08 08:56 23.46662 110.59070 40965 ft 532 kts 103°
2026-05-08 08:56 23.40116 110.90549 40962 ft 532 kts 103°
2026-05-08 08:57 23.33482 111.21920 40963 ft 531 kts 103°
2026-05-08 08:57 23.27067 111.53263 40964 ft 531 kts 103°
2026-05-08 08:58 23.20464 111.84416 40960 ft 531 kts 103°
2026-05-08 08:58 23.14210 112.14453 40954 ft 531 kts 103°
2026-05-08 08:59 23.12568 112.22277 40951 ft 530 kts 103°
2026-05-08 08:59 23.10922 112.30093 40953 ft 530 kts 103°
2026-05-08 09:00 23.09277 112.37900 40953 ft 530 kts 103°
2026-05-08 09:00 23.07641 112.45648 40952 ft 530 kts 103°
2026-05-08 09:01 23.06673 112.53586 40947 ft 530 kts 94°
2026-05-08 09:01 23.06097 112.61559 40942 ft 530 kts 94°
2026-05-08 09:02 23.05580 112.69538 40941 ft 530 kts 93°
2026-05-08 09:02 23.05054 112.77529 40939 ft 530 kts 94°
2026-05-08 09:03 23.04515 112.85454 40933 ft 529 kts 94°
2026-05-08 09:03 23.03964 112.93431 40933 ft 529 kts 94°
2026-05-08 09:04 23.03409 113.01394 40933 ft 529 kts 94°
2026-05-08 09:04 23.02499 113.09312 40934 ft 529 kts 104°
2026-05-08 09:05 23.01332 113.13087 40913 ft 527 kts 115°
2026-05-08 09:05 22.99598 113.16591 40703 ft 524 kts 126°
2026-05-08 09:05 22.97354 113.19632 40456 ft 521 kts 137°
2026-05-08 09:05 22.94626 113.22195 40212 ft 517 kts 148°
2026-05-08 09:06 22.91538 113.24171 39978 ft 512 kts 159°
2026-05-08 09:06 22.88227 113.25521 39558 ft 504 kts 169°
2026-05-08 09:06 22.84817 113.26218 38981 ft 496 kts 180°
2026-05-08 09:06 22.81394 113.26722 38327 ft 499 kts 174°
2026-05-08 09:07 22.77999 113.27603 37646 ft 502 kts 169°
2026-05-08 09:07 22.74637 113.28627 36988 ft 502 kts 168°
2026-05-08 09:07 22.71281 113.29714 36327 ft 502 kts 167°
2026-05-08 09:07 22.67983 113.30827 35671 ft 503 kts 166°
2026-05-08 09:08 22.64638 113.31982 34980 ft 504 kts 166°
2026-05-08 09:08 22.61290 113.33149 34198 ft 507 kts 166°
2026-05-08 09:08 22.57916 113.34329 33270 ft 511 kts 166°
2026-05-08 09:08 22.54513 113.35511 32397 ft 513 kts 166°
2026-05-08 09:09 22.51101 113.36692 31511 ft 515 kts 165°
2026-05-08 09:09 22.47680 113.37873 30587 ft 517 kts 165°
2026-05-08 09:09 22.44288 113.39043 29634 ft 520 kts 165°
2026-05-08 09:09 22.40855 113.40227 28846 ft 516 kts 165°
2026-05-08 09:10 22.37442 113.41405 28123 ft 511 kts 165°
2026-05-08 09:10 22.34067 113.42570 27436 ft 506 kts 165°
2026-05-08 09:10 22.30718 113.43724 26753 ft 502 kts 164°
2026-05-08 09:10 22.27398 113.44867 26054 ft 499 kts 163°
2026-05-08 09:11 22.24100 113.46000 25379 ft 496 kts 163°
2026-05-08 09:11 22.20823 113.47131 24687 ft 493 kts 163°
2026-05-08 09:11 22.17577 113.48312 23989 ft 491 kts 162°
2026-05-08 09:11 22.14362 113.49503 23608 ft 481 kts 162°
2026-05-08 09:12 22.11288 113.50639 23480 ft 464 kts 162°
2026-05-08 09:12 22.08279 113.51747 23294 ft 450 kts 162°
2026-05-08 09:12 22.05361 113.52819 23109 ft 436 kts 162°
2026-05-08 09:12 22.02525 113.53859 22900 ft 424 kts 162°
2026-05-08 09:13 21.99749 113.54876 22326 ft 421 kts 162°
2026-05-08 09:13 21.96988 113.55913 21783 ft 418 kts 160°
2026-05-08 09:13 21.94319 113.57132 21325 ft 413 kts 156°
2026-05-08 09:13 21.91708 113.58381 20855 ft 408 kts 157°
2026-05-08 09:14 21.89126 113.59603 20367 ft 404 kts 157°
2026-05-08 09:14 21.86548 113.60809 19876 ft 401 kts 157°
2026-05-08 09:14 21.83999 113.61992 19406 ft 397 kts 158°
2026-05-08 09:14 21.81482 113.63155 18932 ft 393 kts 158°
2026-05-08 09:15 21.79006 113.64297 18489 ft 389 kts 158°
2026-05-08 09:15 21.77338 113.65064 18132 ft 382 kts 158°
2026-05-08 09:15 21.74158 113.66527 17384 ft 366 kts 158°
2026-05-08 09:15 21.71830 113.67597 16923 ft 363 kts 158°
2026-05-08 09:16 21.69521 113.68666 16473 ft 361 kts 157°
2026-05-08 09:16 21.68043 113.69585 16150 ft 362 kts 143°
2026-05-08 09:16 21.66397 113.71613 15710 ft 363 kts 119°
2026-05-08 09:16 21.65651 113.74142 15251 ft 361 kts 95°
2026-05-08 09:17 21.65918 113.76792 14846 ft 356 kts 70°
2026-05-08 09:17 21.67153 113.79044 14459 ft 348 kts 44°
2026-05-08 09:17 21.69109 113.80487 14106 ft 338 kts 18°
2026-05-08 09:17 21.71376 113.80853 13784 ft 326 kts 352°
2026-05-08 09:18 21.73613 113.80570 13344 ft 324 kts 358°
2026-05-08 09:18 21.75800 113.81144 12917 ft 328 kts 26°
2026-05-08 09:18 21.77622 113.82666 12768 ft 341 kts 41°
2026-05-08 09:18 21.79362 113.84462 12721 ft 351 kts 42°
2026-05-08 09:19 21.81133 113.86277 12590 ft 352 kts 41°
2026-05-08 09:19 21.82918 113.88081 12307 ft 351 kts 42°
2026-05-08 09:19 21.84452 113.90117 11999 ft 352 kts 59°
2026-05-08 09:19 21.85195 113.92608 11683 ft 352 kts 83°
2026-05-08 09:20 21.85338 113.95229 11370 ft 350 kts 88°
2026-05-08 09:20 21.85387 113.97851 11074 ft 349 kts 88°
2026-05-08 09:20 21.85436 114.00454 10948 ft 347 kts 88°
2026-05-08 09:20 21.85494 114.03050 10926 ft 347 kts 88°
2026-05-08 09:21 21.85556 114.05608 10933 ft 346 kts 88°
2026-05-08 09:21 21.85621 114.08203 10941 ft 346 kts 88°
2026-05-08 09:22 21.92058 114.19730 9583 ft 300 kts 33°